Time,TemperatureF,DewpointF,PressureIn,WindDirection,WindDirectionDegrees,WindSpeedMPH,WindSpeedGustMPH,Humidity,HourlyPrecipIn,Conditions,Clouds,dailyrainin,SoftwareType,DateUTC
2013-09-30 00:00:00,58.1,46.4,29.85,SSE,150,3.0,4.0,65,0.00,,,0.04,Wunderground v.1.15,2013-09-30 05:00:00,
2013-09-30 00:30:00,57.5,45.8,29.85,SE,143,2.0,3.0,65,0.00,,,0.00,Wunderground v.1.15,2013-09-30 05:30:00,
2013-09-30 01:00:00,57.3,46.0,29.84,SE,124,1.0,1.0,66,0.00,,,0.00,Wunderground v.1.15,2013-09-30 06:00:00,
2013-09-30 01:30:00,56.2,46.2,29.83,ESE,110,2.0,2.0,69,0.00,,,0.01,Wunderground v.1.15,2013-09-30 06:30:00,
2013-09-30 02:00:00,55.7,46.1,29.83,SE,126,0.0,1.0,70,0.00,,,0.01,Wunderground v.1.15,2013-09-30 07:00:00,
2013-09-30 02:30:00,56.0,46.0,29.83,SE,139,2.0,2.0,69,0.00,,,0.01,Wunderground v.1.15,2013-09-30 07:30:00,
2013-09-30 03:00:00,55.9,45.9,29.83,SSE,153,1.0,1.0,69,0.00,,,0.01,Wunderground v.1.15,2013-09-30 08:00:00,
2013-09-30 03:30:00,55.6,46.0,29.83,SE,144,1.0,3.0,70,0.00,,,0.01,Wunderground v.1.15,2013-09-30 08:30:00,
2013-09-30 04:00:00,54.5,45.7,29.82,SE,136,2.0,3.0,72,0.00,,,0.01,Wunderground v.1.15,2013-09-30 09:00:00,
2013-09-30 04:30:00,53.6,45.9,29.81,ESE,118,2.0,2.0,75,0.00,,,0.01,Wunderground v.1.15,2013-09-30 09:30:00,
2013-09-30 05:00:00,53.8,46.1,29.80,ESE,118,2.0,3.0,75,0.00,,,0.01,Wunderground v.1.15,2013-09-30 10:00:00,
2013-09-30 05:30:00,54.8,45.9,29.79,SE,126,4.0,4.0,72,0.00,,,0.01,Wunderground v.1.15,2013-09-30 10:30:00,
2013-09-30 06:00:00,55.1,45.9,29.79,South,190,1.0,1.0,71,0.00,,,0.01,Wunderground v.1.15,2013-09-30 11:00:00,
2013-09-30 06:30:00,55.4,45.8,29.78,SSE,161,4.0,4.0,70,0.00,,,0.01,Wunderground v.1.15,2013-09-30 11:30:00,
2013-09-30 07:00:00,55.7,45.3,29.76,ESE,113,6.0,7.0,68,0.00,,,0.01,Wunderground v.1.15,2013-09-30 12:00:00,
2013-09-30 07:30:00,55.7,45.3,29.76,ESE,108,6.0,6.0,68,0.00,,,0.01,Wunderground v.1.15,2013-09-30 12:30:00,
2013-09-30 08:00:00,56.7,45.5,29.76,SE,144,4.0,4.0,66,0.00,,,0.01,Wunderground v.1.15,2013-09-30 13:00:00,
2013-09-30 08:30:00,58.3,46.2,29.75,SE,136,5.0,8.0,64,0.00,,,0.01,Wunderground v.1.15,2013-09-30 13:30:00,
2013-09-30 09:00:00,59.5,47.3,29.74,SE,137,5.0,5.0,64,0.00,,,0.01,Wunderground v.1.15,2013-09-30 14:00:00,
2013-09-30 09:30:00,61.3,47.7,29.73,SSE,156,5.0,5.0,61,0.00,,,0.01,Wunderground v.1.15,2013-09-30 14:30:00,
2013-09-30 10:00:00,63.1,49.0,29.73,South,180,5.0,5.0,60,0.00,,,0.01,Wunderground v.1.15,2013-09-30 15:00:00,
2013-09-30 10:30:00,65.2,49.6,29.72,SW,218,7.0,11.0,57,0.00,,,0.01,Wunderground v.1.15,2013-09-30 15:30:00,
2013-09-30 11:00:00,66.8,49.6,29.71,SE,138,6.0,6.0,54,0.00,,,0.01,Wunderground v.1.15,2013-09-30 16:00:00,
2013-09-30 11:30:00,67.8,49.5,29.71,SSE,154,6.0,6.0,52,0.00,,,0.01,Wunderground v.1.15,2013-09-30 16:30:00,
2013-09-30 12:00:00,69.6,49.0,29.70,South,190,8.0,11.0,48,0.00,,,0.01,Wunderground v.1.15,2013-09-30 17:00:00,
2013-09-30 12:30:00,69.4,48.3,29.70,SW,235,10.0,10.0,47,0.00,,,0.01,Wunderground v.1.15,2013-09-30 17:30:00,
2013-09-30 13:00:00,70.6,49.4,29.69,WSW,247,9.0,9.0,47,0.00,,,0.01,Wunderground v.1.15,2013-09-30 18:00:00,
2013-09-30 13:30:00,70.8,50.1,29.68,SSE,165,10.0,10.0,48,0.00,,,0.01,Wunderground v.1.15,2013-09-30 18:30:00,
2013-09-30 14:00:00,71.3,48.9,29.67,South,183,10.0,10.0,45,0.00,,,0.01,Wunderground v.1.15,2013-09-30 19:00:00,
2013-09-30 14:30:00,71.5,47.2,29.67,SSE,155,8.0,8.0,42,0.00,,,0.01,Wunderground v.1.15,2013-09-30 19:30:00,
2013-09-30 15:00:00,73.0,46.6,29.66,ESE,121,7.0,7.0,39,0.00,,,0.01,Wunderground v.1.15,2013-09-30 20:00:00,
2013-09-30 15:30:00,73.2,45.4,29.65,South,175,9.0,14.0,37,0.00,,,0.01,Wunderground v.1.15,2013-09-30 20:30:00,
2013-09-30 16:00:00,73.0,45.2,29.65,SE,146,11.0,11.0,37,0.00,,,0.01,Wunderground v.1.15,2013-09-30 21:00:00,
2013-09-30 16:30:00,73.3,44.7,29.64,South,169,8.0,8.0,36,0.00,,,0.01,Wunderground v.1.15,2013-09-30 21:30:00,
2013-09-30 17:00:00,73.5,44.2,29.65,SW,225,6.0,6.0,35,0.00,,,0.01,Wunderground v.1.15,2013-09-30 22:00:00,
2013-09-30 17:30:00,73.0,44.5,29.65,SSE,165,7.0,9.0,36,0.00,,,0.01,Wunderground v.1.15,2013-09-30 22:30:00,
2013-09-30 18:00:00,72.5,45.4,29.66,South,184,4.0,4.0,38,0.00,,,0.01,Wunderground v.1.15,2013-09-30 23:00:00,
2013-09-30 18:30:00,71.1,45.5,29.66,SSE,153,3.0,4.0,40,0.00,,,0.01,Wunderground v.1.15,2013-09-30 23:30:00,
2013-09-30 19:00:00,69.3,46.4,29.66,SE,144,3.0,5.0,44,0.00,,,0.01,Wunderground v.1.15,2013-10-01 00:00:00,
2013-09-30 19:30:00,67.6,47.2,29.66,SE,135,3.0,3.0,48,0.00,,,0.01,Wunderground v.1.15,2013-10-01 00:30:00,
2013-09-30 20:00:00,66.1,46.9,29.67,SE,134,3.0,4.0,50,0.00,,,0.01,Wunderground v.1.15,2013-10-01 01:00:00,
2013-09-30 20:30:00,64.7,47.2,29.67,SE,126,3.0,3.0,53,0.00,,,0.01,Wunderground v.1.15,2013-10-01 01:30:00,
2013-09-30 21:00:00,63.4,47.9,29.67,SE,130,2.0,2.0,57,0.00,,,0.01,Wunderground v.1.15,2013-10-01 02:00:00,
2013-09-30 21:30:00,62.4,48.3,29.67,SE,129,2.0,2.0,60,0.00,,,0.01,Wunderground v.1.15,2013-10-01 02:30:00,
2013-09-30 22:00:00,63.1,48.1,29.67,SE,141,1.0,1.0,58,0.00,,,0.01,Wunderground v.1.15,2013-10-01 03:00:00,
2013-09-30 22:30:00,63.5,48.5,29.67,SE,141,2.0,2.0,58,0.00,,,0.01,Wunderground v.1.15,2013-10-01 03:30:00,
2013-09-30 23:00:00,64.0,48.5,29.67,SSE,151,1.0,1.0,57,0.00,,,0.01,Wunderground v.1.15,2013-10-01 04:00:00,
2013-09-30 23:30:00,64.2,48.6,29.66,SE,144,1.0,1.0,57,0.00,,,0.01,Wunderground v.1.15,2013-10-01 04:30:00,